Martha's Vineyard, MA

10:42 PM EDT on May 22, 2017 (GMT -0400)
Martha's Vineyard

Weather History for KMVY - February, 2012

Change the Weather History Date:

Tuesday, February 21, 2012

  Actual Average Record
Temperature  
Mean Temperature 34 °F -  
Max Temperature 46 °F 41 °F 56 °F (1954)
Min Temperature 21 °F 25 °F -7 °F (1950)
Degree Days  
Heating Degree Days 32    
Moisture  
Dew Point 25 °F    
Average Humidity 65    
Maximum Humidity 93    
Minimum Humidity 43    
Precipitation  
Precipitation 0.25 in - - ()
Sea Level Pressure  
Sea Level Pressure 30.20 in    
Wind  
Wind Speed 8 mph (SW)    
Max Wind Speed 17 mph    
Max Gust Speed 24 mph    
Visibility 10 miles    
Events Rain    
Averages and records for this station are not official NWS values.
T = Trace of Precipitation, MM = Missing Value Source: NWS Daily Summary

Daily Weather History Graph

Daily Weather History Graph

Search for Another Location

Airport or City:

Trip Planner

Search our weather history database for the weather conditions in past years. The results will help you decide how hot, cold, wet, or windy it might be!

Date:

Astronomy

Feb. 21, 2012 Rise Set
Actual Time 6:29 AM EST 5:23 PM EST
Civil Twilight 6:01 AM EST 5:51 PM EST
Nautical Twilight 5:29 AM EST 6:23 PM EST
Astronomical Twilight 4:57 AM EST 6:55 PM EST
Moon 5:56 AM EST (2/21) 5:26 PM EST (2/21)
Length of Visible Light 11h 49m
Length of Day
10h 53m
Waning Crescent, 0% of the Moon is Illuminated
Feb 21
Waning Crescent
Feb 21
New
Feb 29
First Quarter
Mar 8
Full
Mar 14
Last Quarter

Hourly Weather History & Observations

Time (EST) Temp. Windchill Dew Point Humidity Pressure Visibility Wind Dir Wind Speed Gust Speed Precip Events Conditions
12:53 AM 30.9 °F 25.2 °F 16.0 °F 54% 30.29 in 10.0 mi North 5.8 mph - N/A   Clear
1:53 AM 30.9 °F 23.5 °F 17.1 °F 57% 30.31 in 10.0 mi NNW 8.1 mph - N/A   Clear
2:53 AM 28.9 °F 20.4 °F 17.1 °F 61% 30.31 in 10.0 mi NNW 9.2 mph - N/A   Clear
3:53 AM 28.9 °F 23.9 °F 17.1 °F 61% 30.33 in 10.0 mi NNW 4.6 mph - N/A   Clear
4:53 AM 26.1 °F 19.4 °F 17.1 °F 69% 30.33 in 10.0 mi NNW 5.8 mph - N/A   Clear
5:53 AM 24.1 °F 18.2 °F 16.0 °F 71% 30.32 in 10.0 mi North 4.6 mph - N/A   Clear
6:53 AM 21.0 °F 16.2 °F 15.1 °F 78% 30.34 in 10.0 mi NW 3.5 mph - N/A   Clear
7:53 AM 32.0 °F - 21.9 °F 66% 30.35 in 10.0 mi Calm Calm - N/A   Clear
8:53 AM 37.0 °F - 21.9 °F 54% 30.34 in 10.0 mi Calm Calm - N/A   Clear
9:53 AM 39.0 °F 33.4 °F 18.0 °F 43% 30.32 in 10.0 mi South 8.1 mph - N/A   Clear
10:53 AM 39.0 °F 32.8 °F 21.9 °F 50% 30.32 in 10.0 mi South 9.2 mph - N/A   Clear
12:53 PM 41.0 °F 34.3 °F 25.0 °F 53% 30.27 in 10.0 mi WSW 11.5 mph 18.4 mph N/A   Clear
1:53 PM 41.0 °F 33.9 °F 24.1 °F 51% 30.25 in 10.0 mi SW 12.7 mph 20.7 mph N/A   Clear
2:53 PM 41.0 °F 32.8 °F 25.0 °F 53% 30.20 in 10.0 mi SSW 16.1 mph - N/A   Clear
3:36 PM 39.2 °F 30.2 °F 26.6 °F 61% 30.19 in 10.0 mi SSW 17.3 mph 24.2 mph N/A   Mostly Cloudy
3:53 PM 39.9 °F 31.8 °F 26.1 °F 58% 30.18 in 10.0 mi SSW 15.0 mph 20.7 mph N/A   Mostly Cloudy
4:05 PM 41.0 °F 33.1 °F 26.6 °F 57% 30.18 in 10.0 mi SSW 15.0 mph - N/A   Scattered Clouds
5:53 PM 39.0 °F 31.8 °F 30.0 °F 70% 30.10 in 10.0 mi South 11.5 mph - N/A   Clear
7:53 PM 41.0 °F 34.3 °F 34.0 °F 76% 30.01 in 10.0 mi SSE 11.5 mph - N/A   Mostly Cloudy
9:53 PM 44.1 °F 37.1 °F 39.0 °F 82% 29.94 in 10.0 mi SSE 15.0 mph - 0.00 in Rain Light Rain
10:53 PM 45.0 °F 38.9 °F 41.0 °F 86% 29.89 in 7.0 mi South 12.7 mph 19.6 mph 0.08 in Rain Heavy Rain
11:36 PM 46.4 °F 43.5 °F 42.8 °F 87% 29.89 in 4.0 mi West 5.8 mph 17.3 mph 0.15 in Rain Heavy Rain
11:53 PM 46.0 °F - 44.1 °F 93% 29.87 in 10.0 mi Calm Calm - 0.17 in Rain Light Rain